EZS73RT BKPR-LSGG

Flight info

Callsign EZS73RT
Flight time 2h 22m
Altitude 36000
Route KUKAD1D KUKAD DCT RETRA DCT SIPAL DCT BAXON DCT SRN DCT OMETO DCT AOSTA L615 BANKO
Aircraft A320/M-SDE2E3FGHIJ1RWXYZ/LB1

Departure

Time 2026-04-20 12:34
Airport Priština Adem Jashari International Airport (BKPR)

Arrival

Time 2026-04-20 14:56
Airport Geneva International Airport (LSGG)
Time Latitude Longitude Altitude Speed Heading
2026-04-20 12:11 42.57505 21.03107 1787 ft 0 kts 266°
2026-04-20 12:24 42.57506 21.03129 1787 ft 4 kts 267°
2026-04-20 12:25 42.57508 21.03166 1787 ft 4 kts 263°
2026-04-20 12:25 42.57513 21.03201 1786 ft 4 kts 259°
2026-04-20 12:25 42.57517 21.03229 1786 ft 3 kts 255°
2026-04-20 12:28 42.57514 21.03226 1785 ft 1 kts 232°
2026-04-20 12:28 42.57513 21.03226 1786 ft 0 kts 218°
2026-04-20 12:29 42.57501 21.03224 1786 ft 3 kts 182°
2026-04-20 12:29 42.57464 21.03226 1787 ft 7 kts 174°
2026-04-20 12:29 42.57416 21.03233 1787 ft 6 kts 174°
2026-04-20 12:29 42.57366 21.03239 1787 ft 11 kts 175°
2026-04-20 12:30 42.57325 21.03295 1787 ft 8 kts 92°
2026-04-20 12:30 42.57296 21.03343 1787 ft 6 kts 162°
2026-04-20 12:30 42.57258 21.03349 1786 ft 5 kts 175°
2026-04-20 12:30 42.57213 21.03354 1786 ft 9 kts 175°
2026-04-20 12:31 42.57123 21.03362 1783 ft 17 kts 176°
2026-04-20 12:31 42.57008 21.03371 1786 ft 16 kts 175°
2026-04-20 12:31 42.56886 21.03386 1783 ft 19 kts 175°
2026-04-20 12:31 42.56742 21.03400 1781 ft 22 kts 176°
2026-04-20 12:32 42.56594 21.03415 1782 ft 21 kts 175°
2026-04-20 12:32 42.56446 21.03429 1783 ft 15 kts 176°
2026-04-20 12:32 42.56371 21.03439 1785 ft 9 kts 163°
2026-04-20 12:32 42.56339 21.03479 1786 ft 5 kts 123°
2026-04-20 12:33 42.56313 21.03538 1785 ft 10 kts 111°
2026-04-20 12:33 42.56298 21.03643 1786 ft 12 kts 83°
2026-04-20 12:33 42.56346 21.03685 1786 ft 0 kts 357°
2026-04-20 12:33 42.56348 21.03684 1786 ft 3 kts 357°
2026-04-20 12:34 42.56636 21.03654 1780 ft 80 kts 355°
2026-04-20 12:34 42.57397 21.03576 1789 ft 139 kts 355°
2026-04-20 12:34 42.58477 21.03480 2133 ft 159 kts 351°
2026-04-20 12:34 42.59580 21.03388 2905 ft 158 kts 351°
2026-04-20 12:35 42.60723 21.03202 3339 ft 171 kts 337°
2026-04-20 12:35 42.61755 21.02369 3750 ft 179 kts 310°
2026-04-20 12:35 42.62302 21.00810 4043 ft 195 kts 273°
2026-04-20 12:35 42.62024 20.98952 4380 ft 218 kts 248°
2026-04-20 12:36 42.61368 20.96949 4750 ft 245 kts 246°
2026-04-20 12:36 42.60596 20.94780 5380 ft 260 kts 245°
2026-04-20 12:36 42.59829 20.92552 6314 ft 261 kts 246°
2026-04-20 12:36 42.59073 20.90294 7169 ft 263 kts 247°
2026-04-20 12:37 42.58331 20.88035 8000 ft 266 kts 248°
2026-04-20 12:37 42.57580 20.85726 8846 ft 269 kts 248°
2026-04-20 12:37 42.56819 20.83381 9663 ft 273 kts 248°
2026-04-20 12:37 42.56044 20.81001 10370 ft 281 kts 248°
2026-04-20 12:38 42.55221 20.78480 10609 ft 304 kts 247°
2026-04-20 12:38 42.54340 20.75783 11052 ft 318 kts 247°
2026-04-20 12:38 42.53435 20.73025 11754 ft 323 kts 248°
2026-04-20 12:38 42.52516 20.70227 12498 ft 326 kts 248°
2026-04-20 12:39 42.50645 20.64553 13934 ft 332 kts 248°
2026-04-20 12:39 42.49697 20.61681 14580 ft 335 kts 248°
2026-04-20 12:39 42.48740 20.58786 15202 ft 338 kts 248°
2026-04-20 12:40 42.47776 20.55867 15844 ft 341 kts 249°
2026-04-20 12:40 42.46816 20.52964 16484 ft 343 kts 249°
2026-04-20 12:40 42.45833 20.49998 17114 ft 346 kts 249°
2026-04-20 12:40 42.44842 20.47018 17750 ft 348 kts 249°
2026-04-20 12:41 42.43844 20.44021 18392 ft 350 kts 249°
2026-04-20 12:41 42.42837 20.40997 18942 ft 352 kts 249°
2026-04-20 12:41 42.41830 20.37958 19483 ft 354 kts 249°
2026-04-20 12:41 42.40831 20.34943 20015 ft 357 kts 249°
2026-04-20 12:42 42.39807 20.31862 20550 ft 359 kts 249°
2026-04-20 12:42 42.38778 20.28769 21064 ft 361 kts 249°
2026-04-20 12:42 42.37740 20.25658 21564 ft 364 kts 249°
2026-04-20 12:42 42.36693 20.22523 22061 ft 366 kts 249°
2026-04-20 12:43 42.35663 20.19398 22587 ft 368 kts 252°
2026-04-20 12:43 42.34932 20.16090 23064 ft 366 kts 261°
2026-04-20 12:43 42.34452 20.12691 23556 ft 368 kts 262°
2026-04-20 12:43 42.33971 20.09320 23967 ft 370 kts 262°
2026-04-20 12:44 42.33478 20.05889 24363 ft 372 kts 262°
2026-04-20 12:44 42.32981 20.02439 24763 ft 375 kts 262°
2026-04-20 12:44 42.32480 19.98964 25164 ft 377 kts 262°
2026-04-20 12:44 42.31973 19.95461 25554 ft 380 kts 262°
2026-04-20 12:45 42.31466 19.91952 25903 ft 381 kts 262°
2026-04-20 12:45 42.31127 19.89609 26154 ft 383 kts 262°
2026-04-20 12:45 42.30444 19.84903 26646 ft 387 kts 262°
2026-04-20 12:45 42.29923 19.81323 27012 ft 389 kts 262°
2026-04-20 12:46 42.29574 19.78941 27262 ft 391 kts 263°
2026-04-20 12:46 42.29045 19.75325 27631 ft 393 kts 263°
2026-04-20 12:46 42.28512 19.71689 27979 ft 396 kts 263°
2026-04-20 12:46 42.27798 19.66828 28430 ft 399 kts 263°
2026-04-20 12:47 42.27432 19.64346 28684 ft 400 kts 263°
2026-04-20 12:47 42.26890 19.60688 29013 ft 403 kts 263°
2026-04-20 12:47 42.26337 19.56957 29348 ft 405 kts 263°
2026-04-20 12:47 42.25782 19.53213 29667 ft 407 kts 263°
2026-04-20 12:48 42.25223 19.49452 29993 ft 409 kts 263°
2026-04-20 12:48 42.24660 19.45677 30264 ft 411 kts 263°
2026-04-20 12:48 42.24095 19.41889 30531 ft 413 kts 263°
2026-04-20 12:48 42.23711 19.38052 30780 ft 410 kts 271°
2026-04-20 12:49 42.23828 19.34265 31018 ft 408 kts 281°
2026-04-20 12:49 42.24441 19.30547 31275 ft 406 kts 290°
2026-04-20 12:49 42.25533 19.27049 31642 ft 403 kts 300°
2026-04-20 12:49 42.26908 19.23761 32003 ft 401 kts 301°
2026-04-20 12:50 42.28284 19.20473 32346 ft 400 kts 301°
2026-04-20 12:50 42.29645 19.17197 32709 ft 399 kts 301°
2026-04-20 12:50 42.30998 19.13923 33046 ft 398 kts 301°
2026-04-20 12:50 42.32334 19.10687 33372 ft 398 kts 301°
2026-04-20 12:51 42.33686 19.07413 33683 ft 398 kts 301°
2026-04-20 12:51 42.35037 19.04145 34013 ft 397 kts 301°
2026-04-20 12:51 42.36379 19.00888 34299 ft 397 kts 301°
2026-04-20 12:51 42.37725 18.97617 34560 ft 397 kts 301°
2026-04-20 12:52 42.39070 18.94346 34832 ft 397 kts 301°
2026-04-20 12:52 42.40414 18.91083 35081 ft 397 kts 301°
2026-04-20 12:52 42.41741 18.87860 35314 ft 397 kts 301°
2026-04-20 12:52 42.43084 18.84598 35537 ft 396 kts 300°
2026-04-20 12:53 42.44427 18.81328 35775 ft 396 kts 300°
2026-04-20 12:53 42.45771 18.78052 35961 ft 396 kts 300°
2026-04-20 12:53 42.47107 18.74794 36034 ft 394 kts 300°
2026-04-20 12:54 42.49741 18.68364 36030 ft 391 kts 300°
2026-04-20 12:54 42.52372 18.61914 36029 ft 391 kts 300°
2026-04-20 12:55 42.54978 18.55480 36024 ft 391 kts 300°
2026-04-20 12:55 42.57600 18.49012 36023 ft 390 kts 300°
2026-04-20 12:56 42.60224 18.42546 36025 ft 391 kts 300°
2026-04-20 12:56 42.62844 18.36084 36028 ft 390 kts 300°
2026-04-20 12:57 42.65441 18.29653 36030 ft 390 kts 300°
2026-04-20 12:57 42.68045 18.23163 36031 ft 390 kts 299°
2026-04-20 12:58 42.70628 18.16716 36030 ft 390 kts 299°
2026-04-20 12:58 42.73233 18.10225 36023 ft 390 kts 299°
2026-04-20 12:59 42.75832 18.03731 36016 ft 390 kts 299°
2026-04-20 12:59 42.78413 17.97267 36016 ft 390 kts 299°
2026-04-20 13:00 42.80998 17.90766 36026 ft 390 kts 299°
2026-04-20 13:00 42.83564 17.84296 36024 ft 390 kts 299°
2026-04-20 13:01 42.86141 17.77797 36023 ft 389 kts 299°
2026-04-20 13:01 42.88722 17.71289 36009 ft 389 kts 299°
2026-04-20 13:02 42.91269 17.64810 36009 ft 389 kts 298°
2026-04-20 13:02 42.93828 17.58289 36008 ft 389 kts 299°
2026-04-20 13:03 42.96399 17.51766 36009 ft 389 kts 299°
2026-04-20 13:03 42.98942 17.45277 36010 ft 389 kts 299°
2026-04-20 13:04 43.01492 17.38742 36008 ft 389 kts 298°
2026-04-20 13:04 43.04022 17.32248 36013 ft 389 kts 298°
2026-04-20 13:05 43.06566 17.25719 36014 ft 389 kts 298°
2026-04-20 13:05 43.09108 17.19162 36015 ft 389 kts 298°
2026-04-20 13:06 43.11618 17.12656 36016 ft 389 kts 298°
2026-04-20 13:06 43.14145 17.06105 36025 ft 389 kts 298°
2026-04-20 13:07 43.16642 16.99534 36020 ft 388 kts 297°
2026-04-20 13:07 43.19093 16.93001 36019 ft 388 kts 297°
2026-04-20 13:08 43.21561 16.86398 36019 ft 388 kts 297°
2026-04-20 13:08 43.24016 16.79851 36018 ft 388 kts 297°
2026-04-20 13:09 43.26483 16.73275 36014 ft 387 kts 297°
2026-04-20 13:09 43.28949 16.66674 36007 ft 387 kts 297°
2026-04-20 13:10 43.31383 16.60129 36007 ft 387 kts 297°
2026-04-20 13:10 43.33831 16.53528 36009 ft 387 kts 297°
2026-04-20 13:11 43.36278 16.46931 36013 ft 387 kts 297°
2026-04-20 13:11 43.38705 16.40370 36011 ft 387 kts 297°
2026-04-20 13:12 43.41139 16.33761 36006 ft 387 kts 297°
2026-04-20 13:12 43.43569 16.27139 36007 ft 387 kts 297°
2026-04-20 13:13 43.45996 16.20515 36030 ft 387 kts 297°
2026-04-20 13:13 43.48404 16.13932 36026 ft 386 kts 296°
2026-04-20 13:14 43.50824 16.07309 36022 ft 386 kts 296°
2026-04-20 13:14 43.53241 16.00693 36016 ft 386 kts 296°
2026-04-20 13:15 43.55640 15.94101 36003 ft 386 kts 296°
2026-04-20 13:15 43.58038 15.87479 36001 ft 386 kts 296°
2026-04-20 13:16 43.60434 15.80853 36001 ft 386 kts 296°
2026-04-20 13:16 43.62814 15.74263 35997 ft 386 kts 296°
2026-04-20 13:17 43.65212 15.67607 35996 ft 386 kts 296°
2026-04-20 13:17 43.67599 15.60960 35996 ft 386 kts 296°
2026-04-20 13:18 43.69964 15.54351 35995 ft 386 kts 296°
2026-04-20 13:18 43.72346 15.47688 35993 ft 386 kts 296°
2026-04-20 13:19 43.74723 15.41022 35996 ft 386 kts 296°
2026-04-20 13:19 43.77095 15.34360 35995 ft 386 kts 296°
2026-04-20 13:20 43.79446 15.27731 35988 ft 386 kts 296°
2026-04-20 13:20 43.81813 15.21049 35994 ft 386 kts 296°
2026-04-20 13:21 43.84179 15.14350 35998 ft 386 kts 295°
2026-04-20 13:21 43.86526 15.07686 35998 ft 386 kts 295°
2026-04-20 13:22 43.88882 15.00983 36001 ft 386 kts 295°
2026-04-20 13:22 43.91222 14.94316 36002 ft 386 kts 295°
2026-04-20 13:23 43.93565 14.87596 35990 ft 386 kts 295°
2026-04-20 13:23 43.95905 14.80874 35992 ft 386 kts 295°
2026-04-20 13:24 43.98242 14.74188 35995 ft 386 kts 295°
2026-04-20 13:24 44.00581 14.67457 35996 ft 387 kts 295°
2026-04-20 13:25 44.02910 14.60718 35997 ft 387 kts 295°
2026-04-20 13:25 44.05232 14.53979 35999 ft 387 kts 295°
2026-04-20 13:26 44.07545 14.47273 36012 ft 387 kts 295°
2026-04-20 13:26 44.09873 14.40510 36007 ft 386 kts 295°
2026-04-20 13:27 44.12175 14.33804 36001 ft 386 kts 295°
2026-04-20 13:27 44.14480 14.27057 35998 ft 386 kts 295°
2026-04-20 13:28 44.16784 14.20286 35984 ft 386 kts 295°
2026-04-20 13:28 44.19074 14.13566 35984 ft 386 kts 295°
2026-04-20 13:29 44.21374 14.06798 35982 ft 386 kts 295°
2026-04-20 13:29 44.23664 14.00028 35982 ft 386 kts 295°
2026-04-20 13:30 44.25942 13.93285 35981 ft 386 kts 295°
2026-04-20 13:30 44.28225 13.86499 35982 ft 386 kts 295°
2026-04-20 13:31 44.30511 13.79706 35979 ft 386 kts 295°
2026-04-20 13:31 44.32788 13.72916 35980 ft 386 kts 294°
2026-04-20 13:32 44.35044 13.66155 35973 ft 386 kts 294°
2026-04-20 13:32 44.37317 13.59330 35973 ft 386 kts 294°
2026-04-20 13:33 44.39564 13.52559 35982 ft 386 kts 294°
2026-04-20 13:33 44.41814 13.45745 35980 ft 385 kts 294°
2026-04-20 13:34 44.43948 13.38852 35976 ft 385 kts 292°
2026-04-20 13:34 44.45997 13.31954 35975 ft 385 kts 292°
2026-04-20 13:35 44.48052 13.25025 35970 ft 385 kts 292°
2026-04-20 13:35 44.50121 13.18109 35973 ft 385 kts 292°
2026-04-20 13:36 44.52178 13.11230 35971 ft 384 kts 292°
2026-04-20 13:36 44.54240 13.04318 35974 ft 384 kts 292°
2026-04-20 13:37 44.56293 12.97401 35970 ft 384 kts 292°
2026-04-20 13:37 44.58337 12.90517 35976 ft 384 kts 292°
2026-04-20 13:38 44.60385 12.83597 35978 ft 383 kts 292°
2026-04-20 13:38 44.62424 12.76689 35982 ft 382 kts 292°
2026-04-20 13:39 44.64442 12.69814 35983 ft 382 kts 292°
2026-04-20 13:39 44.66124 12.64072 35983 ft 382 kts 292°
2026-04-20 13:40 44.68465 12.56053 35964 ft 381 kts 292°
2026-04-20 13:40 44.70139 12.50309 35994 ft 381 kts 292°
2026-04-20 13:41 44.72144 12.43417 35988 ft 380 kts 292°
2026-04-20 13:41 44.74143 12.36524 35985 ft 380 kts 292°
2026-04-20 13:42 44.76117 12.29688 35987 ft 379 kts 292°
2026-04-20 13:42 44.79098 12.19345 35984 ft 379 kts 292°
2026-04-20 13:43 44.81070 12.12485 35988 ft 379 kts 292°
2026-04-20 13:43 44.83044 12.05587 35991 ft 379 kts 292°
2026-04-20 13:44 44.85005 11.98732 35992 ft 378 kts 292°
2026-04-20 13:44 44.86965 11.91831 36000 ft 378 kts 292°
2026-04-20 13:45 44.88922 11.84939 35987 ft 378 kts 292°
2026-04-20 13:45 44.90870 11.78075 36002 ft 378 kts 292°
2026-04-20 13:46 44.92818 11.71183 36004 ft 377 kts 292°
2026-04-20 13:46 44.94749 11.64333 36014 ft 377 kts 292°
2026-04-20 13:47 44.96688 11.57429 36016 ft 377 kts 292°
2026-04-20 13:47 44.98609 11.50578 36010 ft 377 kts 292°
2026-04-20 13:48 45.00535 11.43672 36043 ft 377 kts 291°
2026-04-20 13:48 45.02454 11.36781 36033 ft 377 kts 291°
2026-04-20 13:49 45.04370 11.29882 36028 ft 377 kts 291°
2026-04-20 13:49 45.06273 11.23019 35980 ft 377 kts 291°
2026-04-20 13:50 45.08185 11.16097 35968 ft 377 kts 291°
2026-04-20 13:50 45.10070 11.09225 35962 ft 377 kts 291°
2026-04-20 13:51 45.11973 11.02297 35961 ft 376 kts 291°
2026-04-20 13:51 45.13862 10.95418 35960 ft 376 kts 291°
2026-04-20 13:52 45.15753 10.88491 35962 ft 376 kts 291°
2026-04-20 13:52 45.17645 10.81555 35952 ft 376 kts 291°
2026-04-20 13:53 45.19521 10.74673 35965 ft 376 kts 291°
2026-04-20 13:53 45.21393 10.67742 35969 ft 376 kts 291°
2026-04-20 13:54 45.23261 10.60816 35973 ft 375 kts 291°
2026-04-20 13:54 45.25110 10.53939 35971 ft 375 kts 291°
2026-04-20 13:55 45.26971 10.46996 35967 ft 375 kts 291°
2026-04-20 13:55 45.28819 10.40060 35963 ft 375 kts 291°
2026-04-20 13:56 45.30659 10.33166 35993 ft 375 kts 291°
2026-04-20 13:56 45.32508 10.26225 35981 ft 375 kts 291°
2026-04-20 13:57 45.34342 10.19317 35974 ft 374 kts 291°
2026-04-20 13:57 45.36175 10.12381 35969 ft 374 kts 291°
2026-04-20 13:58 45.38003 10.05441 35956 ft 374 kts 290°
2026-04-20 13:58 45.39814 9.98548 35957 ft 374 kts 290°
2026-04-20 13:59 45.41634 9.91602 35955 ft 373 kts 290°
2026-04-20 13:59 45.43428 9.84708 35946 ft 373 kts 290°
2026-04-20 14:00 45.45239 9.77768 36013 ft 373 kts 290°
2026-04-20 14:00 45.47050 9.70819 36027 ft 373 kts 290°
2026-04-20 14:01 45.48846 9.63909 36055 ft 373 kts 290°
2026-04-20 14:01 45.50643 9.56954 36065 ft 374 kts 290°
2026-04-20 14:02 45.52425 9.50026 36065 ft 374 kts 290°
2026-04-20 14:02 45.54208 9.43056 36065 ft 374 kts 290°
2026-04-20 14:03 45.55996 9.36075 35919 ft 374 kts 290°
2026-04-20 14:03 45.57764 9.29138 35921 ft 374 kts 290°
2026-04-20 14:04 45.59545 9.22143 35927 ft 374 kts 290°
2026-04-20 14:04 45.61323 9.15157 35954 ft 374 kts 290°
2026-04-20 14:05 45.63081 9.08196 35947 ft 374 kts 290°
2026-04-20 14:05 45.64678 9.01127 35919 ft 374 kts 281°
2026-04-20 14:06 45.65412 8.93748 35920 ft 375 kts 279°
2026-04-20 14:06 45.66121 8.86346 35923 ft 375 kts 279°
2026-04-20 14:07 45.66822 8.79001 35926 ft 375 kts 279°
2026-04-20 14:07 45.67522 8.71602 35927 ft 375 kts 279°
2026-04-20 14:08 45.68215 8.64197 35929 ft 375 kts 279°
2026-04-20 14:08 45.68905 8.56832 35914 ft 375 kts 279°
2026-04-20 14:09 45.69595 8.49408 35922 ft 376 kts 279°
2026-04-20 14:09 45.70274 8.42018 35946 ft 376 kts 278°
2026-04-20 14:10 45.70955 8.34578 35950 ft 376 kts 278°
2026-04-20 14:10 45.71625 8.27154 35955 ft 376 kts 278°
2026-04-20 14:11 45.72287 8.19768 35957 ft 376 kts 278°
2026-04-20 14:11 45.72950 8.12350 35950 ft 377 kts 278°
2026-04-20 14:12 45.73611 8.04901 35958 ft 377 kts 278°
2026-04-20 14:12 45.74269 7.97448 35970 ft 377 kts 278°
2026-04-20 14:13 45.74921 7.89995 35972 ft 377 kts 278°
2026-04-20 14:13 45.75573 7.82566 35986 ft 377 kts 278°
2026-04-20 14:14 45.76218 7.75127 35988 ft 376 kts 278°
2026-04-20 14:14 45.76860 7.67721 35983 ft 376 kts 278°
2026-04-20 14:15 45.77495 7.60274 35961 ft 378 kts 278°
2026-04-20 14:15 45.78124 7.52776 35520 ft 381 kts 278°
2026-04-20 14:16 45.78443 7.49009 34604 ft 387 kts 278°
2026-04-20 14:16 45.78767 7.45170 34094 ft 386 kts 278°
2026-04-20 14:16 45.79082 7.41367 33572 ft 379 kts 278°
2026-04-20 14:16 45.79387 7.37653 32679 ft 373 kts 278°
2026-04-20 14:17 45.79686 7.34006 32102 ft 370 kts 278°
2026-04-20 14:17 45.79985 7.30356 31486 ft 369 kts 278°
2026-04-20 14:17 45.80285 7.26699 30970 ft 365 kts 278°
2026-04-20 14:17 45.80579 7.23097 30414 ft 363 kts 278°
2026-04-20 14:18 45.80871 7.19518 29928 ft 358 kts 278°
2026-04-20 14:18 45.81155 7.15992 29420 ft 353 kts 278°
2026-04-20 14:18 45.81429 7.12572 28987 ft 347 kts 278°
2026-04-20 14:18 45.81702 7.09158 28561 ft 342 kts 279°
2026-04-20 14:19 45.82239 7.05870 28130 ft 338 kts 290°
2026-04-20 14:19 45.83261 7.02857 27709 ft 334 kts 301°
2026-04-20 14:19 45.84573 7.00110 27286 ft 331 kts 302°
2026-04-20 14:19 45.85871 6.97405 26855 ft 325 kts 302°
2026-04-20 14:20 45.87124 6.94777 26456 ft 322 kts 302°
2026-04-20 14:20 45.88381 6.92130 26028 ft 319 kts 302°
2026-04-20 14:20 45.89626 6.89504 25592 ft 316 kts 302°
2026-04-20 14:20 45.90861 6.86894 25154 ft 316 kts 302°
2026-04-20 14:21 45.92099 6.84282 24708 ft 316 kts 302°
2026-04-20 14:21 45.93348 6.81656 24230 ft 319 kts 302°
2026-04-20 14:21 45.94583 6.79058 23785 ft 318 kts 302°
2026-04-20 14:21 45.95833 6.76425 23274 ft 318 kts 302°
2026-04-20 14:22 45.97064 6.73805 22805 ft 315 kts 301°
2026-04-20 14:22 45.98277 6.71194 22351 ft 312 kts 301°
2026-04-20 14:22 45.99472 6.68609 21927 ft 310 kts 301°
2026-04-20 14:22 46.00659 6.66035 21495 ft 308 kts 301°
2026-04-20 14:23 46.01839 6.63470 21069 ft 307 kts 301°
2026-04-20 14:23 46.03016 6.60912 20642 ft 306 kts 301°
2026-04-20 14:23 46.04191 6.58363 20222 ft 305 kts 301°
2026-04-20 14:23 46.05362 6.55824 19803 ft 303 kts 301°
2026-04-20 14:24 46.06524 6.53335 19396 ft 302 kts 302°
2026-04-20 14:24 46.07707 6.50838 18980 ft 301 kts 302°
2026-04-20 14:24 46.08890 6.48352 18571 ft 300 kts 302°
2026-04-20 14:24 46.10070 6.45869 18147 ft 300 kts 302°
2026-04-20 14:25 46.11243 6.43390 17725 ft 299 kts 302°
2026-04-20 14:25 46.12414 6.40911 17311 ft 298 kts 302°
2026-04-20 14:25 46.13582 6.38436 16927 ft 296 kts 302°
2026-04-20 14:25 46.14723 6.36015 16539 ft 295 kts 302°
2026-04-20 14:26 46.15879 6.33562 16145 ft 294 kts 302°
2026-04-20 14:26 46.17027 6.31121 15735 ft 294 kts 302°
2026-04-20 14:26 46.17992 6.28530 15421 ft 289 kts 287°
2026-04-20 14:26 46.18241 6.25696 15185 ft 285 kts 267°
2026-04-20 14:27 46.17743 6.22964 14881 ft 287 kts 246°
2026-04-20 14:27 46.16557 6.20681 14626 ft 280 kts 229°
2026-04-20 14:27 46.15220 6.18744 14477 ft 265 kts 230°
2026-04-20 14:27 46.13943 6.16869 14176 ft 259 kts 230°
2026-04-20 14:28 46.12690 6.15014 13777 ft 258 kts 230°
2026-04-20 14:28 46.11452 6.13178 13505 ft 257 kts 230°
2026-04-20 14:28 46.10215 6.11343 13056 ft 255 kts 230°
2026-04-20 14:28 46.08983 6.09515 12577 ft 254 kts 229°
2026-04-20 14:29 46.07742 6.07705 12052 ft 252 kts 229°
2026-04-20 14:29 46.06505 6.05918 11560 ft 251 kts 228°
2026-04-20 14:29 46.05272 6.04140 11083 ft 250 kts 228°
2026-04-20 14:29 46.04047 6.02372 10604 ft 248 kts 227°
2026-04-20 14:30 46.02846 6.00640 10150 ft 247 kts 227°
2026-04-20 14:30 46.01637 5.98901 9634 ft 245 kts 226°
2026-04-20 14:30 46.00429 5.97168 9073 ft 245 kts 226°
2026-04-20 14:30 45.99223 5.95438 8745 ft 244 kts 226°
2026-04-20 14:31 45.98036 5.93737 8601 ft 236 kts 226°
2026-04-20 14:31 45.97273 5.92643 8525 ft 231 kts 226°
2026-04-20 14:31 45.96148 5.91030 8377 ft 225 kts 226°
2026-04-20 14:31 45.95090 5.88579 8070 ft 218 kts 262°
2026-04-20 14:32 45.95267 5.86468 7799 ft 215 kts 296°
2026-04-20 14:32 45.96139 5.84720 7524 ft 217 kts 311°
2026-04-20 14:32 45.96812 5.83656 7370 ft 216 kts 313°
2026-04-20 14:32 45.97848 5.82076 7122 ft 216 kts 313°
2026-04-20 14:33 45.98991 5.80696 6849 ft 216 kts 336°
2026-04-20 14:33 46.00462 5.80358 6646 ft 218 kts
2026-04-20 14:33 46.01960 5.80590 6474 ft 219 kts
2026-04-20 14:33 46.03385 5.81327 6300 ft 219 kts 33°
2026-04-20 14:34 46.04523 5.82774 6173 ft 219 kts 45°
2026-04-20 14:34 46.05598 5.84333 6090 ft 219 kts 45°
2026-04-20 14:34 46.06663 5.85877 5873 ft 218 kts 45°
2026-04-20 14:34 46.07733 5.87431 5597 ft 218 kts 44°
2026-04-20 14:35 46.08809 5.88995 5321 ft 219 kts 44°
2026-04-20 14:35 46.09884 5.90559 5030 ft 220 kts 44°
2026-04-20 14:35 46.10956 5.92119 4724 ft 217 kts 44°
2026-04-20 14:35 46.12002 5.93643 4441 ft 211 kts 43°
2026-04-20 14:36 46.13018 5.95124 4169 ft 205 kts 43°
2026-04-20 14:36 46.13999 5.96555 3911 ft 195 kts 43°
2026-04-20 14:36 46.14930 5.97913 3648 ft 187 kts 44°
2026-04-20 14:36 46.15828 5.99223 3394 ft 178 kts 44°
2026-04-20 14:37 46.16651 6.00425 3185 ft 164 kts 44°
2026-04-20 14:37 46.17435 6.01570 2957 ft 157 kts 44°
2026-04-20 14:37 46.18184 6.02664 2757 ft 150 kts 44°
2026-04-20 14:37 46.18911 6.03725 2560 ft 148 kts 44°
2026-04-20 14:38 46.19632 6.04776 2354 ft 147 kts 44°
2026-04-20 14:38 46.20351 6.05818 2126 ft 146 kts 45°
2026-04-20 14:38 46.21055 6.06859 1930 ft 145 kts 45°
2026-04-20 14:38 46.21756 6.07896 1767 ft 144 kts 45°
2026-04-20 14:39 46.22460 6.08921 1554 ft 143 kts 45°
2026-04-20 14:39 46.23155 6.09935 1413 ft 141 kts 46°
2026-04-20 14:39 46.23863 6.10985 2000 ft 152 kts 46°
2026-04-20 14:39 46.24642 6.12111 2758 ft 164 kts 45°
2026-04-20 14:40 46.25477 6.13282 3250 ft 171 kts 44°
2026-04-20 14:40 46.26343 6.14524 3512 ft 188 kts 45°
2026-04-20 14:40 46.27301 6.15968 3658 ft 210 kts 46°
2026-04-20 14:40 46.28333 6.17544 3983 ft 219 kts 46°
2026-04-20 14:41 46.29388 6.19172 4548 ft 222 kts 46°
2026-04-20 14:41 46.30444 6.20815 5185 ft 223 kts 46°
2026-04-20 14:41 46.31489 6.22454 5781 ft 226 kts 46°
2026-04-20 14:41 46.32556 6.24145 6384 ft 228 kts 46°
2026-04-20 14:42 46.33635 6.25862 6871 ft 233 kts 46°
2026-04-20 14:42 46.34734 6.27611 6981 ft 234 kts 46°
2026-04-20 14:42 46.35826 6.29354 7004 ft 233 kts 46°
2026-04-20 14:42 46.36917 6.31094 7006 ft 233 kts 46°
2026-04-20 14:43 46.37997 6.32814 7009 ft 233 kts 46°
2026-04-20 14:43 46.39090 6.34555 7007 ft 233 kts 46°
2026-04-20 14:43 46.40181 6.36297 7011 ft 233 kts 46°
2026-04-20 14:43 46.41322 6.37959 7011 ft 231 kts 31°
2026-04-20 14:44 46.42789 6.38694 7012 ft 227 kts 359°
2026-04-20 14:44 46.44285 6.38142 7012 ft 223 kts 326°
2026-04-20 14:44 46.45317 6.36497 7015 ft 224 kts 298°
2026-04-20 14:44 46.45994 6.34455 7011 ft 224 kts 294°
2026-04-20 14:45 46.46611 6.32374 7009 ft 224 kts 293°
2026-04-20 14:45 46.47217 6.30282 7008 ft 225 kts 291°
2026-04-20 14:45 46.47449 6.28086 7011 ft 227 kts 262°
2026-04-20 14:45 46.46807 6.25995 7014 ft 230 kts 231°
2026-04-20 14:46 46.45675 6.24337 7011 ft 232 kts 224°
2026-04-20 14:46 46.44545 6.22699 7011 ft 231 kts 231°
2026-04-20 14:46 46.43521 6.20898 7012 ft 231 kts 233°
2026-04-20 14:46 46.42487 6.19092 7015 ft 239 kts 229°
2026-04-20 14:47 46.41291 6.17225 7012 ft 260 kts 228°
2026-04-20 14:47 46.40036 6.15301 7005 ft 264 kts 228°
2026-04-20 14:47 46.38766 6.13351 7007 ft 266 kts 228°
2026-04-20 14:48 46.36248 6.09472 7008 ft 266 kts 228°
2026-04-20 14:48 46.34979 6.07517 7008 ft 266 kts 228°
2026-04-20 14:48 46.33707 6.05551 7009 ft 266 kts 228°
2026-04-20 14:48 46.32438 6.03598 7009 ft 266 kts 228°
2026-04-20 14:49 46.31066 6.01804 7011 ft 268 kts 212°
2026-04-20 14:49 46.29364 6.00772 7011 ft 270 kts 200°
2026-04-20 14:49 46.27604 5.99829 7010 ft 269 kts 199°
2026-04-20 14:49 46.25818 5.99034 7010 ft 268 kts 198°
2026-04-20 14:50 46.24127 5.97954 6787 ft 264 kts 211°
2026-04-20 14:50 46.22564 5.96568 6410 ft 263 kts 213°
2026-04-20 14:50 46.21024 5.95144 6082 ft 260 kts 213°
2026-04-20 14:50 46.19543 5.93770 5946 ft 243 kts 213°
2026-04-20 14:51 46.18176 5.92506 5781 ft 226 kts 213°
2026-04-20 14:51 46.16885 5.91315 5448 ft 221 kts 212°
2026-04-20 14:51 46.15539 5.90287 5101 ft 219 kts 204°
2026-04-20 14:51 46.14083 5.89809 4838 ft 213 kts 174°
2026-04-20 14:52 46.12817 5.90634 4807 ft 192 kts 130°
2026-04-20 14:52 46.12360 5.92287 4681 ft 175 kts 86°
2026-04-20 14:52 46.12648 5.93970 4375 ft 173 kts 64°
2026-04-20 14:52 46.13263 5.95443 4059 ft 169 kts 47°
2026-04-20 14:53 46.14083 5.96593 3770 ft 160 kts 39°
2026-04-20 14:53 46.14860 5.97695 3587 ft 154 kts 44°
2026-04-20 14:53 46.15584 5.98788 3401 ft 150 kts 45°
2026-04-20 14:53 46.16304 5.99869 3176 ft 148 kts 44°
2026-04-20 14:54 46.17003 6.00950 2995 ft 147 kts 45°
2026-04-20 14:54 46.17720 6.02007 2791 ft 147 kts 43°
2026-04-20 14:54 46.18456 6.03029 2589 ft 146 kts 44°
2026-04-20 14:54 46.19164 6.04082 2424 ft 146 kts 44°
2026-04-20 14:55 46.19875 6.05112 2250 ft 144 kts 45°
2026-04-20 14:55 46.20576 6.06140 2020 ft 142 kts 46°
2026-04-20 14:55 46.21267 6.07178 1873 ft 143 kts 44°
2026-04-20 14:55 46.21968 6.08195 1711 ft 143 kts 46°
2026-04-20 14:56 46.22660 6.09214 1505 ft 142 kts 45°
2026-04-20 14:56 46.23338 6.10208 1402 ft 128 kts 46°
2026-04-20 14:56 46.23843 6.10950 1379 ft 79 kts 45°
2026-04-20 14:56 46.24111 6.11346 1374 ft 38 kts 46°
2026-04-20 14:57 46.24261 6.11568 1374 ft 31 kts 51°
2026-04-20 14:57 46.24332 6.11821 1368 ft 22 kts 75°
2026-04-20 14:57 46.24345 6.11903 1366 ft 7 kts 90°
2026-04-20 14:57 46.24308 6.11945 1363 ft 8 kts 176°
2026-04-20 14:58 46.24260 6.11895 1362 ft 9 kts 228°
2026-04-20 14:58 46.24221 6.11837 1362 ft 7 kts 225°
2026-04-20 14:58 46.24193 6.11796 1364 ft 6 kts 225°
2026-04-20 14:58 46.24147 6.11729 1366 ft 15 kts 225°
2026-04-20 14:59 46.24052 6.11592 1369 ft 20 kts 225°
2026-04-20 14:59 46.23958 6.11455 1373 ft 18 kts 226°
2026-04-20 14:59 46.23881 6.11342 1373 ft 14 kts 225°
2026-04-20 14:59 46.23821 6.11253 1378 ft 11 kts 225°
2026-04-20 15:00 46.23772 6.11180 1376 ft 10 kts 226°
2026-04-20 15:00 46.23720 6.11103 1384 ft 11 kts 225°
2026-04-20 15:00 46.23661 6.11017 1386 ft 14 kts 225°
2026-04-20 15:00 46.23578 6.10893 1389 ft 19 kts 225°
2026-04-20 15:01 46.23485 6.10757 1390 ft 19 kts 225°
2026-04-20 15:01 46.23394 6.10630 1398 ft 18 kts 223°
2026-04-20 15:01 46.23295 6.10489 1397 ft 22 kts 226°
2026-04-20 15:01 46.23212 6.10437 1398 ft 10 kts 180°
2026-04-20 15:02 46.23169 6.10437 1394 ft 5 kts 180°
2026-04-20 15:02 46.23161 6.10437 1393 ft 0 kts 180°